Humidity-temperature Sensor

Selected Measurement Type: Air Temperature

 
Air Temperature [°C]     6 entries per hour
Showing data from 2/23/2017 (00:00:00 Z) to 2/22/2017 (00:01:00 Z)
Previous Next [ Day | 3-Days | 7-Days ]
First Last
Prev [ Day | 3-Days | 7-Days ] Next
First Last

Start Time:     :
End Time:     :     
Time (in GMT) :00 :50 :40 :30 :20 :10
Previous Next [ Day | 3-Days | 7-Days ]
First Last
Prev [ Day | 3-Days | 7-Days ] Next
First Last


123 => good data
MM => data is determined as missing
-- => data not received/configured
Back to Top Back to Top
2/23/2017 00:00 to 23:10 27.15 27.09 27.08 27.03 27.12 27.09
2/22/2017 23:00 to 22:10 27.11 27.05 27.25 27.07 27.13 27.25
2/22/2017 22:00 to 21:10 27.13 27.31 27.21 27.24 27.18 27.25
2/22/2017 21:00 to 20:10 27.06 27.06 27.05 27.08 27.01 27.05
2/22/2017 20:00 to 19:10 26.94 27.05 27.01 27.00 27.06 27.06
2/22/2017 19:00 to 18:10 27.05 27.11 26.99 27.07 27.11 27.11
2/22/2017 18:00 to 17:10 27.19 27.14 27.09 27.12 27.07 27.06
2/22/2017 17:00 to 16:10 27.05 27.07 27.00 26.98 27.03 27.09
2/22/2017 16:00 to 15:10 27.02 27.06 27.09 26.99 26.89 26.90
2/22/2017 15:00 to 14:10 26.54 26.46 26.41 26.53 26.46 26.43
2/22/2017 14:00 to 13:10 26.49 26.46 26.43 26.41 26.31 26.37
2/22/2017 13:00 to 12:10 26.38 26.40 26.35 26.42 26.45 26.39
2/22/2017 12:00 to 11:10 26.48 26.40 26.38 26.42 26.38 26.30
2/22/2017 11:00 to 10:10 26.43 26.48 26.44 26.40 26.43 26.43
2/22/2017 10:00 to 9:10 -- -- -- -- -- --
2/22/2017 09:00 to 8:10 26.60 26.65 26.76 26.68 26.67 26.62
2/22/2017 08:00 to 7:10 26.89 26.67 26.72 26.67 26.76 26.73
2/22/2017 07:00 to 6:10 26.78 26.79 26.73 26.78 26.77 26.85
2/22/2017 06:00 to 5:10 26.82 26.85 26.87 26.87 26.95 26.83
2/22/2017 05:00 to 4:10 26.87 26.80 26.88 26.90 26.93 26.88
2/22/2017 04:00 to 3:10 26.92 26.89 26.91 27.02 26.95 26.82
2/22/2017 03:00 to 2:10 26.92 26.87 26.89 26.91 26.84 26.92
2/22/2017 02:00 to 1:10 27.13 27.13 27.24 27.20 27.27 27.09
2/22/2017 01:00 to 0:10 27.25 27.03 26.99 27.07 27.00 27.03